Year,Month,Day,Hour,Minute,Value (Times are PST for temperature in C)
2016,08,21,00,00,20.60
2016,08,21,00,01,20.60
2016,08,21,00,02,20.50
2016,08,21,00,03,20.40
2016,08,21,00,04,20.40
2016,08,21,00,05,20.40
2016,08,21,00,06,20.40
2016,08,21,00,07,20.30
2016,08,21,00,08,20.30
2016,08,21,00,09,20.30
2016,08,21,00,10,20.30
2016,08,21,00,11,20.30
2016,08,21,00,12,20.20
2016,08,21,00,13,20.20
2016,08,21,00,14,20.20
2016,08,21,00,15,20.20
2016,08,21,00,16,20.20
2016,08,21,00,17,20.10
2016,08,21,00,18,20.10
2016,08,21,00,19,20.10
2016,08,21,00,20,20.10
2016,08,21,00,21,20.10
2016,08,21,00,22,20.00
2016,08,21,00,23,20.00
2016,08,21,00,24,19.90
2016,08,21,00,25,19.90
2016,08,21,00,26,19.90
2016,08,21,00,27,19.90
2016,08,21,00,28,19.90
2016,08,21,00,29,19.90
2016,08,21,00,30,19.90
2016,08,21,00,31,19.80
2016,08,21,00,32,19.80
2016,08,21,00,33,19.80
2016,08,21,00,34,19.80
2016,08,21,00,35,19.80
2016,08,21,00,36,19.80
2016,08,21,00,37,19.80
2016,08,21,00,38,19.70
2016,08,21,00,39,19.70
2016,08,21,00,40,19.70
2016,08,21,00,41,19.70
2016,08,21,00,42,19.70
2016,08,21,00,43,19.60
2016,08,21,00,44,19.60
2016,08,21,00,45,19.60
2016,08,21,00,46,19.60
2016,08,21,00,47,19.60
2016,08,21,00,48,19.50
2016,08,21,00,49,19.50
2016,08,21,00,50,19.50
2016,08,21,00,51,19.40
2016,08,21,00,52,19.40
2016,08,21,00,53,19.40
2016,08,21,00,54,19.40
2016,08,21,00,55,19.40
2016,08,21,00,56,19.40
2016,08,21,00,57,19.40
2016,08,21,00,58,19.40
2016,08,21,00,59,19.40
2016,08,21,01,00,19.40
2016,08,21,01,01,19.40
2016,08,21,01,02,19.40
2016,08,21,01,03,19.30
2016,08,21,01,04,19.30
2016,08,21,01,05,19.30
2016,08,21,01,06,19.30
2016,08,21,01,07,19.30
2016,08,21,01,08,19.30
2016,08,21,01,09,19.20
2016,08,21,01,10,19.20
2016,08,21,01,11,19.20
2016,08,21,01,12,19.20
2016,08,21,01,13,19.10
2016,08,21,01,14,19.10
2016,08,21,01,15,19.00
2016,08,21,01,16,19.00
2016,08,21,01,17,18.90
2016,08,21,01,18,18.90
2016,08,21,01,19,18.90
2016,08,21,01,20,18.90
2016,08,21,01,21,18.80
2016,08,21,01,22,18.80
2016,08,21,01,23,18.80
2016,08,21,01,24,18.80
2016,08,21,01,25,18.80
2016,08,21,01,26,18.70
2016,08,21,01,27,18.70
2016,08,21,01,28,18.70
2016,08,21,01,29,18.70
2016,08,21,01,30,18.70
2016,08,21,01,31,18.70
2016,08,21,01,32,18.70
2016,08,21,01,33,18.70
2016,08,21,01,34,18.70
2016,08,21,01,35,18.70
2016,08,21,01,36,18.70
2016,08,21,01,37,18.70
2016,08,21,01,38,18.70
2016,08,21,01,39,18.70
2016,08,21,01,40,18.70
2016,08,21,01,41,18.70
2016,08,21,01,42,18.60
2016,08,21,01,43,18.60
2016,08,21,01,44,18.60
2016,08,21,01,45,18.60
2016,08,21,01,46,18.60
2016,08,21,01,47,18.60
2016,08,21,01,48,18.50
2016,08,21,01,49,18.50
2016,08,21,01,52,18.40
2016,08,21,01,53,18.40
2016,08,21,01,54,18.40
2016,08,21,01,55,18.40
2016,08,21,01,56,18.30
2016,08,21,01,57,18.30
2016,08,21,01,58,18.30
2016,08,21,01,59,18.30
2016,08,21,02,00,18.30
2016,08,21,02,01,18.30
2016,08,21,02,02,18.20
2016,08,21,02,03,18.20
2016,08,21,02,04,18.20
2016,08,21,02,06,18.10
2016,08,21,02,07,18.10
2016,08,21,02,08,18.10
2016,08,21,02,09,18.10
2016,08,21,02,10,18.00
2016,08,21,02,11,18.00
2016,08,21,02,12,18.00
2016,08,21,02,13,18.00
2016,08,21,02,14,17.90
2016,08,21,02,15,17.90
2016,08,21,02,16,17.90
2016,08,21,02,17,17.90
2016,08,21,02,18,17.90
2016,08,21,02,19,17.90
2016,08,21,02,20,17.90
2016,08,21,02,21,17.80
2016,08,21,02,22,17.80
2016,08,21,02,23,17.80
2016,08,21,02,24,17.80
2016,08,21,02,25,17.80
2016,08,21,02,26,17.80
2016,08,21,02,27,17.80
2016,08,21,02,28,17.80
2016,08,21,02,29,17.80
2016,08,21,02,30,17.80
2016,08,21,02,31,17.80
2016,08,21,02,32,17.80
2016,08,21,02,33,17.80
2016,08,21,02,34,17.80
2016,08,21,02,35,17.80
2016,08,21,02,36,17.80
2016,08,21,02,37,17.80
2016,08,21,02,38,17.80
2016,08,21,02,39,17.80
2016,08,21,02,40,17.80
2016,08,21,02,41,17.80
2016,08,21,02,42,17.80
2016,08,21,02,43,17.80
2016,08,21,02,44,17.80
2016,08,21,02,45,17.80
2016,08,21,02,46,17.80
2016,08,21,02,47,17.80
2016,08,21,02,48,17.80
2016,08,21,02,49,17.80
2016,08,21,02,50,17.80
2016,08,21,02,51,17.70
2016,08,21,02,52,17.70
2016,08,21,02,53,17.70
2016,08,21,02,54,17.70
2016,08,21,02,55,17.70
2016,08,21,02,56,17.70
2016,08,21,02,57,17.70
2016,08,21,02,58,17.70
2016,08,21,02,59,17.70
2016,08,21,03,00,17.70
2016,08,21,03,01,17.70
2016,08,21,03,02,17.70
2016,08,21,03,03,17.70
2016,08,21,03,04,17.70
2016,08,21,03,05,17.60
2016,08,21,03,06,17.60
2016,08,21,03,07,17.60
2016,08,21,03,09,17.60
2016,08,21,03,10,17.60
2016,08,21,03,11,17.60
2016,08,21,03,12,17.50
2016,08,21,03,13,17.50
2016,08,21,03,14,17.50
2016,08,21,03,15,17.40
2016,08,21,03,16,17.40
2016,08,21,03,17,17.40
2016,08,21,03,18,17.40
2016,08,21,03,19,17.30
2016,08,21,03,20,17.30
2016,08,21,03,21,17.30
2016,08,21,03,22,17.30
2016,08,21,03,23,17.30
2016,08,21,03,24,17.30
2016,08,21,03,25,17.20
2016,08,21,03,26,17.20
2016,08,21,03,27,17.20
2016,08,21,03,28,17.20
2016,08,21,03,29,17.20
2016,08,21,03,30,17.20
2016,08,21,03,31,17.20
2016,08,21,03,32,17.20
2016,08,21,03,33,17.20
2016,08,21,03,34,17.10
2016,08,21,03,35,17.10
2016,08,21,03,36,17.10
2016,08,21,03,37,17.10
2016,08,21,03,38,17.10
2016,08,21,03,39,17.10
2016,08,21,03,40,17.10
2016,08,21,03,41,17.10
2016,08,21,03,42,17.10
2016,08,21,03,43,17.00
2016,08,21,03,44,17.00
2016,08,21,03,45,17.00
2016,08,21,03,46,17.00
2016,08,21,03,47,17.00
2016,08,21,03,48,16.90
2016,08,21,03,49,16.90
2016,08,21,03,50,16.90
2016,08,21,03,51,16.90
2016,08,21,03,52,16.90
2016,08,21,03,53,16.90
2016,08,21,03,54,16.90
2016,08,21,03,55,16.90
2016,08,21,03,56,16.90
2016,08,21,03,57,16.90
2016,08,21,03,58,16.90
2016,08,21,03,59,16.90
2016,08,21,04,00,16.90
2016,08,21,04,01,16.90
2016,08,21,04,02,16.90
2016,08,21,04,03,16.90
2016,08,21,04,04,16.90
2016,08,21,04,05,16.90
2016,08,21,04,06,16.90
2016,08,21,04,07,16.90
2016,08,21,04,08,16.90
2016,08,21,04,09,16.90
2016,08,21,04,10,16.90
2016,08,21,04,11,16.90
2016,08,21,04,12,16.90
2016,08,21,04,13,16.90
2016,08,21,04,14,17.00
2016,08,21,04,15,17.00
2016,08,21,04,16,17.00
2016,08,21,04,17,17.10
2016,08,21,04,18,17.10
2016,08,21,04,19,17.10
2016,08,21,04,20,17.10
2016,08,21,04,21,17.10
2016,08,21,04,22,17.10
2016,08,21,04,23,17.10
2016,08,21,04,24,17.10
2016,08,21,04,25,17.10
2016,08,21,04,26,17.10
2016,08,21,04,27,17.10
2016,08,21,04,28,17.10
2016,08,21,04,29,17.10
2016,08,21,04,30,17.00
2016,08,21,04,31,17.00
2016,08,21,04,32,17.00
2016,08,21,04,33,17.00
2016,08,21,04,34,17.00
2016,08,21,04,35,16.90
2016,08,21,04,36,16.90
2016,08,21,04,37,16.90
2016,08,21,04,38,16.90
2016,08,21,04,39,16.90
2016,08,21,04,40,16.90
2016,08,21,04,41,16.90
2016,08,21,04,42,16.90
2016,08,21,04,43,16.90
2016,08,21,04,44,16.90
2016,08,21,04,45,16.90
2016,08,21,04,46,16.90
2016,08,21,04,47,16.90
2016,08,21,04,48,16.90
2016,08,21,04,49,16.90
2016,08,21,04,50,16.80
2016,08,21,04,51,16.80
2016,08,21,04,52,16.80
2016,08,21,04,53,16.80
2016,08,21,04,54,16.80
2016,08,21,04,55,16.80
2016,08,21,04,56,16.70
2016,08,21,04,57,16.70
2016,08,21,04,58,16.70
2016,08,21,04,59,16.70
2016,08,21,05,01,16.70
2016,08,21,05,02,16.70
2016,08,21,05,04,16.70
2016,08,21,05,05,16.70
2016,08,21,05,06,16.70
2016,08,21,05,07,16.60
2016,08,21,05,08,16.60
2016,08,21,05,09,16.60
2016,08,21,05,10,16.60
2016,08,21,05,11,16.60
2016,08,21,05,12,16.60
2016,08,21,05,13,16.60
2016,08,21,05,14,16.60
2016,08,21,05,15,16.60
2016,08,21,05,16,16.60
2016,08,21,05,17,16.60
2016,08,21,05,18,16.50
2016,08,21,05,19,16.50
2016,08,21,05,20,16.50
2016,08,21,05,21,16.40
2016,08,21,05,22,16.40
2016,08,21,05,23,16.40
2016,08,21,05,24,16.40
2016,08,21,05,25,16.40
2016,08,21,05,26,16.40
2016,08,21,05,27,16.40
2016,08,21,05,28,16.30
2016,08,21,05,29,16.30
2016,08,21,05,30,16.30
2016,08,21,05,31,16.30
2016,08,21,05,32,16.30
2016,08,21,05,33,16.30
2016,08,21,05,34,16.20
2016,08,21,05,35,16.20
2016,08,21,05,37,16.20
2016,08,21,05,38,16.20
2016,08,21,05,39,16.20
2016,08,21,05,40,16.20
2016,08,21,05,41,16.10
2016,08,21,05,42,16.10
2016,08,21,05,43,16.10
2016,08,21,05,44,16.10
2016,08,21,05,45,16.10
2016,08,21,05,46,16.00
2016,08,21,05,47,16.00
2016,08,21,05,48,16.00
2016,08,21,05,49,15.90
2016,08,21,05,50,15.90
2016,08,21,05,51,15.90
2016,08,21,05,52,15.90
2016,08,21,05,53,15.90
2016,08,21,05,54,15.90
2016,08,21,05,55,15.90
2016,08,21,05,56,15.80
2016,08,21,05,57,15.80
2016,08,21,05,58,15.80
2016,08,21,05,59,15.80
2016,08,21,06,00,15.80
2016,08,21,06,01,15.80
2016,08,21,06,02,15.80
2016,08,21,06,03,15.80
2016,08,21,06,04,15.80
2016,08,21,06,05,15.80
2016,08,21,06,06,15.80
2016,08,21,06,07,15.70
2016,08,21,06,08,15.80
2016,08,21,06,09,15.70
2016,08,21,06,10,15.70
2016,08,21,06,11,15.70
2016,08,21,06,12,15.70
2016,08,21,06,13,15.70
2016,08,21,06,14,15.70
2016,08,21,06,15,15.70
2016,08,21,06,16,15.70
2016,08,21,06,17,15.70
2016,08,21,06,18,15.60
2016,08,21,06,19,15.60
2016,08,21,06,20,15.60
2016,08,21,06,21,15.60
2016,08,21,06,22,15.60
2016,08,21,06,23,15.60
2016,08,21,06,24,15.60
2016,08,21,06,25,15.60
2016,08,21,06,26,15.50
2016,08,21,06,27,15.50
2016,08,21,06,28,15.50
2016,08,21,06,29,15.50
2016,08,21,06,30,15.50
2016,08,21,06,31,15.50
2016,08,21,06,32,15.40
2016,08,21,06,33,15.40
2016,08,21,06,34,15.40
2016,08,21,06,35,15.40
2016,08,21,06,36,15.40
2016,08,21,06,37,15.40
2016,08,21,06,38,15.40
2016,08,21,06,39,15.40
2016,08,21,06,40,15.40
2016,08,21,06,41,15.40
2016,08,21,06,42,15.40
2016,08,21,06,43,15.40
2016,08,21,06,44,15.40
2016,08,21,06,45,15.40
2016,08,21,06,46,15.40
2016,08,21,06,47,15.40
2016,08,21,06,48,15.30
2016,08,21,06,49,15.30
2016,08,21,06,50,15.30
2016,08,21,06,51,15.30
2016,08,21,06,52,15.30
2016,08,21,06,53,15.30
2016,08,21,06,54,15.30
2016,08,21,06,55,15.30
2016,08,21,06,56,15.30
2016,08,21,06,57,15.30
2016,08,21,06,58,15.30
2016,08,21,06,59,15.30
2016,08,21,07,00,15.30
2016,08,21,07,01,15.30
2016,08,21,07,02,15.30
2016,08,21,07,03,15.30
2016,08,21,07,04,15.30
2016,08,21,07,05,15.30
2016,08,21,07,06,15.30
2016,08,21,07,07,15.30
2016,08,21,07,08,15.30
2016,08,21,07,09,15.30
2016,08,21,07,10,15.30
2016,08,21,07,11,15.30
2016,08,21,07,12,15.30
2016,08,21,07,13,15.30
2016,08,21,07,14,15.40
2016,08,21,07,15,15.40
2016,08,21,07,16,15.40
2016,08,21,07,17,15.40
2016,08,21,07,18,15.40
2016,08,21,07,19,15.40
2016,08,21,07,20,15.50
2016,08,21,07,21,15.50
2016,08,21,07,22,15.50
2016,08,21,07,23,15.60
2016,08,21,07,24,15.60
2016,08,21,07,25,15.60
2016,08,21,07,26,15.60
2016,08,21,07,27,15.70
2016,08,21,07,28,15.70
2016,08,21,07,29,15.80
2016,08,21,07,30,15.80
2016,08,21,07,31,15.80
2016,08,21,07,32,15.90
2016,08,21,07,33,15.90
2016,08,21,07,34,15.90
2016,08,21,07,35,16.00
2016,08,21,07,36,16.00
2016,08,21,07,37,16.00
2016,08,21,07,38,16.10
2016,08,21,07,39,16.10
2016,08,21,07,40,16.10
2016,08,21,07,41,16.10
2016,08,21,07,42,16.10
2016,08,21,07,43,16.20
2016,08,21,07,44,16.20
2016,08,21,07,45,16.20
2016,08,21,07,46,16.20
2016,08,21,07,47,16.20
2016,08,21,07,48,16.20
2016,08,21,07,49,16.20
2016,08,21,07,50,16.30
2016,08,21,07,51,16.30
2016,08,21,07,52,16.30
2016,08,21,07,53,16.30
2016,08,21,07,54,16.30
2016,08,21,07,55,16.40
2016,08,21,07,56,16.40
2016,08,21,07,57,16.40
2016,08,21,07,58,16.50
2016,08,21,07,59,16.60
2016,08,21,08,00,16.60
2016,08,21,08,02,16.60
2016,08,21,08,03,16.70
2016,08,21,08,04,16.70
2016,08,21,08,05,16.70
2016,08,21,08,06,16.70
2016,08,21,08,07,16.70
2016,08,21,08,08,16.70
2016,08,21,08,09,16.80
2016,08,21,08,10,16.80
2016,08,21,08,11,16.80
2016,08,21,08,12,16.80
2016,08,21,08,13,16.80
2016,08,21,08,14,16.80
2016,08,21,08,15,16.80
2016,08,21,08,16,16.80
2016,08,21,08,17,16.80
2016,08,21,08,18,16.80
2016,08,21,08,19,16.80
2016,08,21,08,20,16.90
2016,08,21,08,21,16.90
2016,08,21,08,22,16.90
2016,08,21,08,23,16.80
2016,08,21,08,24,16.90
2016,08,21,08,25,16.90
2016,08,21,08,26,16.90
2016,08,21,08,27,16.90
2016,08,21,08,28,16.90
2016,08,21,08,29,16.90
2016,08,21,08,30,17.00
2016,08,21,08,31,17.10
2016,08,21,08,32,17.10
2016,08,21,08,33,17.20
2016,08,21,08,34,17.20
2016,08,21,08,35,17.20
2016,08,21,08,36,17.30
2016,08,21,08,37,17.30
2016,08,21,08,38,17.30
2016,08,21,08,39,17.30
2016,08,21,08,40,17.40
2016,08,21,08,41,17.40
2016,08,21,08,42,17.40
2016,08,21,08,43,17.50
2016,08,21,08,44,17.50
2016,08,21,08,45,17.60
2016,08,21,08,46,17.60
2016,08,21,08,47,17.60
2016,08,21,08,48,17.60
2016,08,21,08,49,17.60
2016,08,21,08,50,17.50
2016,08,21,08,51,17.50
2016,08,21,08,52,17.50
2016,08,21,08,53,17.50
2016,08,21,08,54,17.60
2016,08,21,08,55,17.60
2016,08,21,08,56,17.60
2016,08,21,08,57,17.70
2016,08,21,08,58,17.80
2016,08,21,08,59,17.80
2016,08,21,09,00,17.90
2016,08,21,09,01,18.00
2016,08,21,09,02,18.00
2016,08,21,09,03,18.10
2016,08,21,09,04,18.10
2016,08,21,09,05,18.10
2016,08,21,09,06,18.10
2016,08,21,09,07,18.10
2016,08,21,09,08,18.10
2016,08,21,09,09,18.10
2016,08,21,09,10,18.20
2016,08,21,09,11,18.20
2016,08,21,09,12,18.20
2016,08,21,09,13,18.30
2016,08,21,09,14,18.30
2016,08,21,09,15,18.30
2016,08,21,09,16,18.40
2016,08,21,09,17,18.40
2016,08,21,09,18,18.50
2016,08,21,09,19,18.60
2016,08,21,09,20,18.60
2016,08,21,09,21,18.70
2016,08,21,09,22,18.70
2016,08,21,09,23,18.80
2016,08,21,09,24,18.80
2016,08,21,09,25,18.90
2016,08,21,09,26,18.90
2016,08,21,09,27,19.10
2016,08,21,09,28,19.10
2016,08,21,09,29,19.10
2016,08,21,09,30,19.10
2016,08,21,09,31,19.10
2016,08,21,09,32,19.20
2016,08,21,09,33,19.20
2016,08,21,09,34,19.20
2016,08,21,09,35,19.20
2016,08,21,09,36,19.30
2016,08,21,09,37,19.40
2016,08,21,09,38,19.40
2016,08,21,09,39,19.40
2016,08,21,09,40,19.50
2016,08,21,09,41,19.50
2016,08,21,09,42,19.50
2016,08,21,09,43,19.50
2016,08,21,09,44,19.50
2016,08,21,09,45,19.50
2016,08,21,09,46,19.40
2016,08,21,09,47,19.40
2016,08,21,09,48,19.40
2016,08,21,09,49,19.40
2016,08,21,09,50,19.30
2016,08,21,09,51,19.30
2016,08,21,09,52,19.30
2016,08,21,09,53,19.20
2016,08,21,09,54,19.20
2016,08,21,09,55,19.20
2016,08,21,09,56,19.30
2016,08,21,09,57,19.30
2016,08,21,09,58,19.30
2016,08,21,09,59,19.30
2016,08,21,10,00,19.30
2016,08,21,10,01,19.30
2016,08,21,10,02,19.40
2016,08,21,10,03,19.40
2016,08,21,10,04,19.40
2016,08,21,10,05,19.40
2016,08,21,10,06,19.40
2016,08,21,10,07,19.50
2016,08,21,10,08,19.50
2016,08,21,10,09,19.50
2016,08,21,10,10,19.60
2016,08,21,10,11,19.50
2016,08,21,10,12,19.50
2016,08,21,10,13,19.40
2016,08,21,10,14,19.40
2016,08,21,10,15,19.40
2016,08,21,10,16,19.50
2016,08,21,10,17,19.50
2016,08,21,10,18,19.60
2016,08,21,10,19,19.60
2016,08,21,10,20,19.70
2016,08,21,10,21,19.70
2016,08,21,10,22,19.70
2016,08,21,10,23,19.70
2016,08,21,10,24,19.70
2016,08,21,10,25,19.80
2016,08,21,10,26,19.80
2016,08,21,10,27,19.90
2016,08,21,10,28,19.90
2016,08,21,10,29,20.00
2016,08,21,10,30,20.10
2016,08,21,10,31,20.10
2016,08,21,10,32,20.10
2016,08,21,10,33,20.20
2016,08,21,10,34,20.20
2016,08,21,10,35,20.20
2016,08,21,10,36,20.30
2016,08,21,10,37,20.40
2016,08,21,10,38,20.40
2016,08,21,10,39,20.40
2016,08,21,10,40,20.40
2016,08,21,10,41,20.40
2016,08,21,10,42,20.30
2016,08,21,10,43,20.20
2016,08,21,10,44,20.20
2016,08,21,10,45,20.10
2016,08,21,10,46,20.00
2016,08,21,10,47,19.90
2016,08,21,10,48,19.80
2016,08,21,10,49,19.80
2016,08,21,10,50,19.70
2016,08,21,10,51,19.70
2016,08,21,10,52,19.70
2016,08,21,10,53,19.60
2016,08,21,10,54,19.60
2016,08,21,10,55,19.60
2016,08,21,10,56,19.50
2016,08,21,10,57,19.50
2016,08,21,10,58,19.40
2016,08,21,10,59,19.40
2016,08,21,11,00,19.40
2016,08,21,11,01,19.40
2016,08,21,11,02,19.40
2016,08,21,11,03,19.40
2016,08,21,11,04,19.40
2016,08,21,11,05,19.40
2016,08,21,11,06,19.40
2016,08,21,11,07,19.40
2016,08,21,11,08,19.40
2016,08,21,11,09,19.30
2016,08,21,11,10,19.30
2016,08,21,11,11,19.20
2016,08,21,11,12,19.20
2016,08,21,11,13,19.20
2016,08,21,11,14,19.20
2016,08,21,11,15,19.10
2016,08,21,11,16,19.00
2016,08,21,11,17,18.90
2016,08,21,11,18,18.90
2016,08,21,11,19,18.90
2016,08,21,11,20,18.90
2016,08,21,11,21,19.00
2016,08,21,11,22,19.00
2016,08,21,11,23,19.10
2016,08,21,11,24,19.10
2016,08,21,11,25,19.10
2016,08,21,11,26,19.10
2016,08,21,11,27,19.10
2016,08,21,11,28,19.10
2016,08,21,11,29,19.10
2016,08,21,11,30,19.10
2016,08,21,11,31,19.00
2016,08,21,11,32,19.00
2016,08,21,11,33,19.00
2016,08,21,11,34,19.00
2016,08,21,11,35,19.00
2016,08,21,11,36,18.90
2016,08,21,11,37,18.90
2016,08,21,11,38,18.90
2016,08,21,11,39,18.90
2016,08,21,11,40,19.10
2016,08,21,11,41,19.10
2016,08,21,11,42,19.20
2016,08,21,11,43,19.30
2016,08,21,11,44,19.40
2016,08,21,11,45,19.60
2016,08,21,11,46,19.70
2016,08,21,11,47,19.80
2016,08,21,11,48,19.80
2016,08,21,11,49,19.90
2016,08,21,11,50,20.10
2016,08,21,11,51,20.10
2016,08,21,11,52,20.20
2016,08,21,11,53,20.20
2016,08,21,11,54,20.30
2016,08,21,11,55,20.40
2016,08,21,11,56,20.50
2016,08,21,11,57,20.60
2016,08,21,11,58,20.60
2016,08,21,11,59,20.60
2016,08,21,12,00,20.60
2016,08,21,12,01,20.60
2016,08,21,12,02,20.70
2016,08,21,12,03,20.70
2016,08,21,12,04,20.80
2016,08,21,12,05,20.90
2016,08,21,12,06,20.90
2016,08,21,12,07,21.00
2016,08,21,12,08,21.10
2016,08,21,12,09,21.10
2016,08,21,12,10,21.20
2016,08,21,12,11,21.30
2016,08,21,12,12,21.30
2016,08,21,12,13,21.40
2016,08,21,12,14,21.50
2016,08,21,12,15,21.50
2016,08,21,12,16,21.60
2016,08,21,12,17,21.60
2016,08,21,12,18,21.60
2016,08,21,12,19,21.50
2016,08,21,12,20,21.50
2016,08,21,12,21,21.50
2016,08,21,12,22,21.50
2016,08,21,12,23,21.40
2016,08,21,12,24,21.40
2016,08,21,12,25,21.50
2016,08,21,12,26,21.60
2016,08,21,12,27,21.60
2016,08,21,12,28,21.60
2016,08,21,12,29,21.60
2016,08,21,12,30,21.60
2016,08,21,12,31,21.60
2016,08,21,12,32,21.60
2016,08,21,12,33,21.60
2016,08,21,12,34,21.60
2016,08,21,12,35,21.60
2016,08,21,12,36,21.70
2016,08,21,12,37,21.70
2016,08,21,12,38,21.70
2016,08,21,12,39,21.70
2016,08,21,12,40,21.70
2016,08,21,12,41,21.80
2016,08,21,12,42,21.80
2016,08,21,12,43,21.80
2016,08,21,12,44,21.70
2016,08,21,12,45,21.70
2016,08,21,12,46,21.70
2016,08,21,12,47,21.60
2016,08,21,12,48,21.70
2016,08,21,12,49,21.70
2016,08,21,12,50,21.70
2016,08,21,12,51,21.70
2016,08,21,12,52,21.70
2016,08,21,12,53,21.80
2016,08,21,12,54,21.80
2016,08,21,12,55,21.90
2016,08,21,12,56,21.90
2016,08,21,12,57,21.90
2016,08,21,12,58,22.00
2016,08,21,12,59,22.10
2016,08,21,13,00,22.10
2016,08,21,13,01,22.10
2016,08,21,13,02,22.10
2016,08,21,13,03,22.00
2016,08,21,13,04,22.00
2016,08,21,13,05,22.00
2016,08,21,13,06,22.00
2016,08,21,13,07,22.00
2016,08,21,13,08,22.10
2016,08,21,13,09,22.10
2016,08,21,13,10,22.10
2016,08,21,13,11,22.10
2016,08,21,13,12,22.10
2016,08,21,13,13,22.10
2016,08,21,13,14,22.00
2016,08,21,13,15,22.00
2016,08,21,13,16,22.00
2016,08,21,13,17,21.90
2016,08,21,13,18,21.90
2016,08,21,13,19,21.90
2016,08,21,13,20,22.00
2016,08,21,13,21,22.00
2016,08,21,13,22,22.10
2016,08,21,13,23,22.10
2016,08,21,13,24,22.10
2016,08,21,13,25,22.20
2016,08,21,13,26,22.10
2016,08,21,13,27,22.00
2016,08,21,13,28,21.90
2016,08,21,13,29,21.90
2016,08,21,13,30,21.80
2016,08,21,13,31,21.70
2016,08,21,13,32,21.70
2016,08,21,13,33,21.70
2016,08,21,13,34,21.70
2016,08,21,13,35,21.80
2016,08,21,13,36,21.80
2016,08,21,13,37,21.80
2016,08,21,13,38,21.80
2016,08,21,13,39,21.80
2016,08,21,13,40,21.90
2016,08,21,13,41,21.90
2016,08,21,13,42,22.00
2016,08,21,13,43,22.10
2016,08,21,13,44,22.10
2016,08,21,13,45,22.10
2016,08,21,13,46,22.10
2016,08,21,13,47,22.10
2016,08,21,13,48,22.00
2016,08,21,13,49,22.00
2016,08,21,13,50,22.10
2016,08,21,13,51,22.10
2016,08,21,13,52,22.20
2016,08,21,13,53,22.20
2016,08,21,13,54,22.30
2016,08,21,13,55,22.30
2016,08,21,13,56,22.30
2016,08,21,13,57,22.30
2016,08,21,13,58,22.30
2016,08,21,13,59,22.30
2016,08,21,14,00,22.30
2016,08,21,14,01,22.30
2016,08,21,14,02,22.30
2016,08,21,14,03,22.30
2016,08,21,14,04,22.40
2016,08,21,14,05,22.40
2016,08,21,14,06,22.50
2016,08,21,14,07,22.50
2016,08,21,14,08,22.60
2016,08,21,14,09,22.60
2016,08,21,14,10,22.60
2016,08,21,14,11,22.70
2016,08,21,14,12,22.60
2016,08,21,14,13,22.60
2016,08,21,14,14,22.60
2016,08,21,14,15,22.70
2016,08,21,14,16,22.80
2016,08,21,14,17,22.80
2016,08,21,14,18,22.80
2016,08,21,14,19,22.80
2016,08,21,14,20,22.80
2016,08,21,14,21,22.80
2016,08,21,14,22,22.80
2016,08,21,14,23,22.80
2016,08,21,14,24,22.70
2016,08,21,14,25,22.70
2016,08,21,14,26,22.70
2016,08,21,14,27,22.60
2016,08,21,14,28,22.60
2016,08,21,14,29,22.70
2016,08,21,14,30,22.70
2016,08,21,14,31,22.80
2016,08,21,14,32,22.80
2016,08,21,14,33,22.70
2016,08,21,14,34,22.80
2016,08,21,14,35,22.70
2016,08,21,14,36,22.70
2016,08,21,14,37,22.70
2016,08,21,14,38,22.80
2016,08,21,14,39,22.80
2016,08,21,14,40,22.80
2016,08,21,14,41,22.70
2016,08,21,14,42,22.80
2016,08,21,14,43,22.80
2016,08,21,14,44,22.80
2016,08,21,14,45,22.80
2016,08,21,14,46,22.80
2016,08,21,14,47,22.80
2016,08,21,14,48,22.80
2016,08,21,14,49,22.80
2016,08,21,14,50,22.80
2016,08,21,14,51,22.80
2016,08,21,14,52,22.80
2016,08,21,14,53,22.80
2016,08,21,14,54,22.80
2016,08,21,14,55,22.80
2016,08,21,14,56,22.80
2016,08,21,14,57,22.80
2016,08,21,14,58,22.90
2016,08,21,14,59,22.90
2016,08,21,15,00,22.90
2016,08,21,15,01,22.80
2016,08,21,15,02,22.80
2016,08,21,15,03,22.80
2016,08,21,15,04,22.80
2016,08,21,15,05,22.80
2016,08,21,15,06,22.80
2016,08,21,15,07,22.80
2016,08,21,15,08,22.80
2016,08,21,15,09,22.70
2016,08,21,15,10,22.70
2016,08,21,15,11,22.80
2016,08,21,15,12,22.90
2016,08,21,15,13,22.90
2016,08,21,15,14,22.80
2016,08,21,15,15,22.80
2016,08,21,15,16,22.80
2016,08,21,15,17,22.90
2016,08,21,15,18,22.90
2016,08,21,15,19,22.90
2016,08,21,15,20,22.90
2016,08,21,15,21,22.80
2016,08,21,15,22,22.70
2016,08,21,15,23,22.60
2016,08,21,15,24,22.50
2016,08,21,15,25,22.50
2016,08,21,15,26,22.50
2016,08,21,15,27,22.60
2016,08,21,15,28,22.70
2016,08,21,15,29,22.70
2016,08,21,15,30,22.80
2016,08,21,15,31,22.80
2016,08,21,15,32,22.90
2016,08,21,15,33,23.10
2016,08,21,15,34,23.10
2016,08,21,15,35,23.20
2016,08,21,15,36,23.20
2016,08,21,15,37,23.30
2016,08,21,15,38,23.30
2016,08,21,15,39,23.20
2016,08,21,15,40,23.20
2016,08,21,15,41,23.20
2016,08,21,15,42,23.20
2016,08,21,15,43,23.10
2016,08,21,15,44,23.10
2016,08,21,15,45,22.90
2016,08,21,15,46,22.90
2016,08,21,15,47,22.80
2016,08,21,15,48,22.70
2016,08,21,15,49,22.40
2016,08,21,15,50,22.30
2016,08,21,15,51,22.20
2016,08,21,15,52,22.00
2016,08,21,15,53,21.90
2016,08,21,15,54,21.80
2016,08,21,15,55,21.70
2016,08,21,15,56,21.70
2016,08,21,15,57,21.60
2016,08,21,15,58,21.60
2016,08,21,15,59,21.60
2016,08,21,16,00,21.60
2016,08,21,16,01,21.60
2016,08,21,16,02,21.50
2016,08,21,16,03,21.40
2016,08,21,16,04,21.30
2016,08,21,16,05,21.10
2016,08,21,16,06,20.90
2016,08,21,16,07,20.70
2016,08,21,16,08,20.60
2016,08,21,16,09,20.50
2016,08,21,16,10,20.40
2016,08,21,16,11,20.30
2016,08,21,16,12,20.30
2016,08,21,16,13,20.30
2016,08,21,16,14,20.20
2016,08,21,16,15,20.20
2016,08,21,16,16,20.20
2016,08,21,16,17,20.20
2016,08,21,16,18,20.20
2016,08,21,16,19,20.10
2016,08,21,16,20,20.10
2016,08,21,16,21,20.20
2016,08,21,16,22,20.20
2016,08,21,16,23,20.20
2016,08,21,16,24,20.20
2016,08,21,16,25,20.20
2016,08,21,16,26,20.20
2016,08,21,16,27,20.20
2016,08,21,16,28,20.20
2016,08,21,16,29,20.30
2016,08,21,16,30,20.30
2016,08,21,16,31,20.30
2016,08,21,16,32,20.40
2016,08,21,16,33,20.40
2016,08,21,16,34,20.40
2016,08,21,16,35,20.40
2016,08,21,16,36,20.40
2016,08,21,16,37,20.40
2016,08,21,16,38,20.40
2016,08,21,16,39,20.40
2016,08,21,16,40,20.40
2016,08,21,16,41,20.40
2016,08,21,16,42,20.40
2016,08,21,16,43,20.40
2016,08,21,16,44,20.40
2016,08,21,16,45,20.40
2016,08,21,16,46,20.40
2016,08,21,16,47,20.40
2016,08,21,16,48,20.40
2016,08,21,16,49,20.40
2016,08,21,16,50,20.30
2016,08,21,16,51,20.30
2016,08,21,16,52,20.20
2016,08,21,16,53,20.20
2016,08,21,16,54,20.10
2016,08,21,16,55,20.00
2016,08,21,16,56,19.90
2016,08,21,16,57,19.80
2016,08,21,16,58,19.80
2016,08,21,16,59,19.80
2016,08,21,17,00,19.80
2016,08,21,17,01,19.70
2016,08,21,17,02,19.50
2016,08,21,17,03,19.30
2016,08,21,17,04,19.20
2016,08,21,17,05,19.10
2016,08,21,17,06,18.90
2016,08,21,17,07,18.90
2016,08,21,17,08,18.80
2016,08,21,17,09,18.80
2016,08,21,17,10,18.70
2016,08,21,17,11,18.70
2016,08,21,17,12,18.70
2016,08,21,17,13,18.70
2016,08,21,17,14,18.70
2016,08,21,17,15,18.70
2016,08,21,17,16,18.70
2016,08,21,17,17,18.70
2016,08,21,17,18,18.70
2016,08,21,17,19,18.70
2016,08,21,17,20,18.70
2016,08,21,17,21,18.70
2016,08,21,17,22,18.70
2016,08,21,17,23,18.70
2016,08,21,17,24,18.80
2016,08,21,17,25,18.80
2016,08,21,17,26,18.80
2016,08,21,17,27,18.90